Flag for Switzerland Weather past 2 weeks in Lugano, Switzerland

Now
59 °F

Clear.


Feels Like: 60 °F
Forecast: 50 / 74 °F
Wind: 3 mph from North

Location: Lugano Airport

Current Time: May 23, 2015 at 6:23:21 AM

Latest Report: May 23, 2015 at 5:20 AM


Visibility: 10 mi

Pressure: 29.86 "Hg

Humidity: 48%

Dew point: 39 °F

Location of LuganoLocation

Historic Weather in Lugano — Graph

°F

Lugano temperature yesterday

Maximum temperature yesterday: 72 °F (at 2:20 PM)
Minimum temperature yesterday: 50 °F (at 4:20 AM)
Average temperature yesterday: 62 °F

Past Weeks' High & Low Weather Summary

 TemperatureHumidityPressure
High81 °F (May 10, 4:20 PM)100% (May 8, 4:20 AM)30.30 "Hg (May 8, 4:20 AM)
Low46 °F (May 20, 11:50 PM)23% (May 10, 2:20 PM)29.59 "Hg (May 15, 2:20 PM)
Average63 °F69%30.00 "Hg
* Reported May 8 4:20 AM — May 23 4:50 AM, Lugano, Weather by CustomWeather, © 2015

Note: Actual official high and low records may vary slightly from our data, if they occured in-between our weather recording intervals... More about our weather records

Advertising

Lugano weather history for previous 24 hours

 ConditionsComfort  
Time TempWeatherWind HumidityBarometerVisibility
4:50 AM
Sat, May 23
61 °FClear.8 mph42%29.86 "HgN/A
4:20 AM63 °FPassing clouds.9 mph34%29.86 "HgN/A
3:50 AM63 °FPassing clouds.12 mph34%29.86 "HgN/A
3:20 AM61 °FOvercast.10 mph36%29.86 "HgN/A
2:50 AM63 °FPassing clouds.12 mph34%29.86 "HgN/A
2:20 AM61 °FPassing clouds.12 mph36%29.86 "HgN/A
1:50 AM61 °FPassing clouds.10 mph36%29.89 "HgN/A
1:20 AM61 °FRefreshingly cool.10 mph36%29.89 "HgN/A
12:50 AM63 °FPassing clouds.14 mph32%29.89 "HgN/A
12:20 AM63 °FPassing clouds.12 mph34%29.92 "HgN/A
11:50 PM
Fri, May 22
63 °FPassing clouds.10 mph34%29.92 "HgN/A
11:20 PM61 °FClear.8 mph36%29.92 "HgN/A
10:50 PM63 °FClear.13 mph34%29.92 "HgN/A
10:20 PM63 °FPassing clouds.12 mph34%29.92 "HgN/A
9:50 PM63 °FPassing clouds.12 mph34%29.92 "HgN/A
9:20 PM63 °FPartly sunny.7 mph34%29.92 "HgN/A
8:50 PM63 °FPartly sunny.5 mph37%29.92 "HgN/A
8:20 PM64 °FBroken clouds.9 mph34%29.92 "HgN/A
7:50 PM64 °FPartly sunny.8 mph34%29.92 "HgN/A
7:20 PM64 °FPartly sunny.12 mph37%29.92 "HgN/A
6:50 PM66 °FPartly sunny.13 mph32%29.92 "HgN/A
6:20 PM66 °FPartly sunny.14 mph35%29.92 "HgN/A
5:50 PM66 °FBroken clouds.13 mph32%29.92 "HgN/A
5:20 PM68 °FBroken clouds.14 mph33%29.92 "HgN/A
4:50 PM70 °FBroken clouds.15 mph33%29.92 "HgN/A
4:20 PM70 °FBroken clouds.14 mph31%29.92 "HgN/A
3:50 PM70 °FBroken clouds.17 mph31%29.92 "HgN/A
3:20 PM70 °FSunny.16 mph35%29.92 "Hg10 mi
2:50 PM70 °FPassing clouds.15 mph33%29.92 "HgN/A
2:20 PM72 °FPassing clouds.14 mph31%29.92 "HgN/A
1:50 PM70 °FPassing clouds.13 mph35%29.95 "HgN/A
1:20 PM70 °FPassing clouds.14 mph35%29.95 "HgN/A
12:50 PM70 °FPassing clouds.15 mph33%29.98 "HgN/A
12:20 PM70 °FPassing clouds.10 mph33%29.98 "HgN/A
11:50 AM70 °FSunny.17 mph33%29.98 "Hg10 mi
11:20 AM68 °FPassing clouds.13 mph38%29.98 "HgN/A
10:50 AM66 °FPassing clouds.15 mph32%29.98 "HgN/A
10:20 AM66 °FPassing clouds.12 mph35%30.01 "HgN/A
9:50 AM61 °FSunny.7 mph55%30.01 "Hg10 mi
9:20 AM59 °FPassing clouds.6 mph59%30.04 "HgN/A
8:50 AM57 °FPassing clouds.6 mph63%30.04 "HgN/A
8:20 AM55 °FSunny.7 mph67%30.04 "Hg10 mi
7:50 AM54 °FPassing clouds.6 mph72%30.04 "HgN/A
7:20 AM52 °FPassing clouds.6 mph82%30.04 "HgN/A
6:50 AM52 °FScattered clouds.6 mph82%30.04 "HgN/A
6:20 AM52 °FPassing clouds.6 mph72%30.04 "HgN/A
Weather by CustomWeather, © 2015

See weather overviewHow to use our weather pages